This demonstration page uses our WeatherBlox Daily Observations layout. Learn more.

Left ArrowRight Arrow

Hourly Observations for March 9, 2020

Temp ( °F °C ) Dew Point ( °F °C ) Humidity (%) Winds ( mph kmh ) Pressure ( in mb ) Visibility ( mi km ) Precip ( " mm )
12:53 am 00:53 Partly Cloudy 48 8.9 44 6.7 86 86 NNE 3 6 30.04 1017 10 16 0.00 0.00
1:53 am 01:53 Mostly Clear 46 7.8 43 6.1 89 89 Calm 30.05 1018 10 16 0.00 0.00
2:53 am 02:53 Mostly Clear 43 6.1 41 5 93 93 Calm 30.06 1018 10 16 0.00 0.00
3:53 am 03:53 Mostly Cloudy 43 6.1 41 5 93 93 Calm 30.06 1018 7 11 0.00 0.00
4:53 am 04:53 Mostly Clear 43 6.1 40 4.4 89 89 Calm 30.07 1018 8 13 0.00 0.00
5:53 am 05:53 Mostly Clear 42 5.6 39 3.9 89 89 Calm 30.08 1019 7 11 0.00 0.00
6:53 am 06:53 Mostly Clear 41 5 38 3.3 89 89 Calm 30.09 1019 10 16 0.00 0.00
7:53 am 07:53 Mostly Cloudy 42 5.6 40 4.4 92 92 N 3 6 30.11 1020 10 16 0.00 0.00
8:53 am 08:53 Cloudy 46 7.8 43 6.1 89 89 Calm 30.14 1021 10 16 0.00 0.00
9:53 am 09:53 Sunny 51 10.6 44 6.7 77 77 NNE 3 6 30.16 1021 10 16 0.00 0.00
10:53 am 10:53 Sunny 55 12.8 45 7.2 69 69 N 3 6 30.14 1021 10 16 0.00 0.00
11:53 am 11:53 Sunny 58 14.4 43 6.1 58 58 NNE 7 11 30.14 1021 10 16 0.00 0.00
12:53 pm 12:53 Partly Cloudy 61 16.1 42 5.6 50 50 Calm 30.13 1020 10 16 0.00 0.00
1:53 pm 13:53 Partly Cloudy 62 16.7 40 4.4 44 44 ESE 3 6 30.11 1020 10 16 0.00 0.00
2:53 pm 14:53 Mostly Cloudy 63 17.2 38 3.3 40 40 Calm 30.09 1019 10 16 0.00 0.00
3:53 pm 15:53 Mostly Cloudy 64 17.8 39 3.9 40 40 E 5 7 30.08 1019 10 16 0.00 0.00
4:53 pm 16:53 Mostly Sunny 65 18.3 38 3.3 37 37 Calm 30.08 1019 10 16 0.00 0.00
5:53 pm 17:53 Sunny 64 17.8 37 2.8 37 37 E 3 6 30.07 1018 10 16 0.00 0.00
6:53 pm 18:53 Sunny 62 16.7 38 3.3 41 41 Calm 30.07 1018 10 16 0.00 0.00
7:53 pm 19:53 Clear 55 12.8 40 4.4 57 57 Calm 30.08 1019 10 16 0.00 0.00
8:53 pm 20:53 Clear 52 11.1 40 4.4 64 64 NNW 3 6 30.09 1019 10 16 0.00 0.00
9:53 pm 21:53 Clear 53 11.7 39 3.9 59 59 N 5 7 30.10 1019 10 16 0.00 0.00
10:53 pm 22:53 Clear 50 10 39 3.9 66 66 NNW 6 9 30.11 1020 10 16 0.00 0.00
11:53 pm 23:53 Clear 47 8.3 39 3.9 74 74 NNW 5 7 30.11 1020 10 16 0.00 0.00

Powered by AerisWeather